User: anonymous   Login
Location: Cutler
(25.6150°N, 80.3110°W)
Time: 10:17:48
(UTC-05:00)
Language:

Cosmos 2360 Rocket - Orbit

View from above orbital plane
View from above orbital plane
View from above satellite
View from above satellite

Ground track
Ground track

The orbit data is extracted from the following two-line orbital elements,

1 25407U 98045B   17024.15694612 -.00000216  00000-0 -85713-4 0  9991
2 25407  71.0125 344.1038 0005617  56.8675 303.2987 14.15755551955791
Epoch (UTC): 24 January 2017 03:46:00
Eccentricity: 0.0005617
inclination: 71.0125°
perigee height: 835 km
apogee height: 844 km
right ascension of ascending node: 344.1038°
argument of perigee: 56.8675°
revolutions per day: 14.15755551
mean anomaly at epoch: 303.2987°
orbit number at epoch: 95579

The dashed part of the orbit path shows where the satellite is in the earth's shadow,  

DLR